Weather History for Broken Bow, NE

Change the Weather History Date:

Saturday, April 5, 2014

  Actual Average Record
Temperature  
Mean Temperature 48 °F 44 °F  
Max Temperature 65 °F 58 °F 84 °F (1954)
Min Temperature 31 °F 31 °F 11 °F (2000)
Degree Days  
Heating Degree Days 17 21  
Month to date heating degree days 140 107  
Cooling Degree Days 0 0  
Month to date cooling degree days 0 0  
Year to date cooling degree days 0 0  
Moisture  
Dew Point 27 °F    
Average Humidity 55    
Maximum Humidity 85    
Minimum Humidity 25    
Precipitation  
Precipitation 0.00 in 0.06 in 0.64 in (1958)
Sea Level Pressure  
Sea Level Pressure 29.94 in    
Wind  
Wind Speed 11 mph (South)    
Max Wind Speed 29 mph    
Max Gust Speed 36 mph    
Visibility 10 miles    
Events      
T = Trace of Precipitation, MM = Missing Value Source: NWS Daily Summary

Daily Weather History Graph

Daily Weather History Graph

Search for Another Location

Airport:

Trip Planner

Search our weather history database for the weather conditions in past years. The results will help you decide how hot, cold, wet, or windy it might be!

Date:

Astronomy

Apr. 05, 2014 Rise Set
Actual Time 7:14 AM CDT 8:08 PM CDT
Civil Twilight 6:46 AM CDT 8:36 PM CDT
Nautical Twilight 6:13 AM CDT 9:09 PM CDT
Astronomical Twilight 5:38 AM CDT 9:44 PM CDT
Moon 11:21 AM CDT (4/5) 1:21 AM CDT (4/5)
Length of Visible Light 13h 49m
Length of Day
12h 53m
Waxing Crescent, 34% of the Moon is Illuminated
Apr 5
Waxing Crescent
Apr 7
First Quarter
Apr 15
Full
Apr 22
Last Quarter
Apr 29
New

Hourly Weather History & Observations

Time (CDT) Temp. Windchill Dew Point Humidity Pressure Visibility Wind Dir Wind Speed Gust Speed Precip Events Conditions
12:53 AM 28.9 °F 23.9 °F 21.0 °F 72% 30.07 in 10.0 mi South 4.6 mph - N/A   Clear
1:53 AM 35.1 °F 27.4 °F 25.0 °F 67% 30.05 in 10.0 mi South 10.4 mph - N/A   Scattered Clouds
2:53 AM 34.0 °F 28.0 °F 24.1 °F 67% 30.04 in 10.0 mi SE 6.9 mph - N/A   Overcast
3:53 AM 34.0 °F 27.2 °F 24.1 °F 67% 30.03 in 10.0 mi South 8.1 mph - N/A   Partly Cloudy
4:53 AM 34.0 °F 25.0 °F 25.0 °F 70% 30.01 in 10.0 mi South 12.7 mph - N/A   Clear
5:53 AM 33.1 °F 23.9 °F 25.0 °F 72% 30.00 in 10.0 mi South 12.7 mph - N/A   Clear
6:53 AM 30.9 °F 22.8 °F 25.0 °F 79% 30.00 in 10.0 mi South 9.2 mph - N/A   Clear
7:53 AM 30.9 °F 26.2 °F 26.1 °F 82% 30.01 in 10.0 mi SSE 4.6 mph - N/A   Clear
8:53 AM 39.0 °F 32.8 °F 27.0 °F 62% 30.01 in 10.0 mi South 9.2 mph - N/A   Clear
9:53 AM 44.1 °F 37.4 °F 26.1 °F 49% 30.00 in 10.0 mi South 13.8 mph 21.9 mph N/A   Clear
10:53 AM 48.0 °F - 26.1 °F 42% 29.99 in 10.0 mi South 24.2 mph 36.8 mph N/A   Clear
11:53 AM 50.0 °F - 27.0 °F 41% 29.96 in 10.0 mi South 20.7 mph 35.7 mph N/A   Clear
12:53 PM 53.1 °F - 28.0 °F 38% 29.95 in 10.0 mi SSW 18.4 mph 26.5 mph N/A   Clear
1:53 PM 55.9 °F - 28.0 °F 34% 29.90 in 10.0 mi SSW 19.6 mph - N/A   Clear
2:53 PM 59.0 °F - 28.0 °F 31% 29.88 in 10.0 mi South 18.4 mph 27.6 mph N/A   Clear
3:53 PM 62.1 °F - 28.0 °F 28% 29.84 in 10.0 mi SW 15.0 mph - N/A   Clear
4:53 PM 63.0 °F - 28.0 °F 27% 29.81 in 10.0 mi SSW 9.2 mph - N/A   Clear
5:53 PM 64.9 °F - 28.0 °F 25% 29.80 in 10.0 mi SSW 13.8 mph - N/A   Clear
6:53 PM 62.1 °F - 27.0 °F 26% 29.83 in 10.0 mi South 17.3 mph 25.3 mph N/A   Mostly Cloudy
7:53 PM 57.9 °F - 28.0 °F 32% 29.84 in 10.0 mi South 10.4 mph - N/A   Mostly Cloudy
8:53 PM 48.0 °F - 27.0 °F 44% 29.85 in 10.0 mi Calm Calm - N/A   Clear
9:53 PM 48.0 °F - 28.9 °F 48% 29.86 in 10.0 mi SSE 3.5 mph - N/A   Clear
10:53 PM 39.9 °F - 27.0 °F 60% 29.88 in 10.0 mi Calm Calm - N/A   Clear
11:53 PM 46.9 °F - 32.0 °F 56% 29.87 in 10.0 mi South 9.2 mph - N/A   Clear